| time (UTC) | temp F | wind direction | speed MPH | gust MPH | rain 1hr in | rain 24hr in | rain mn in | humidity % | barometer mb |
| 20260510094531 | 50 | 250 | 2.0 | 5.0 | 0.00 | 0.00 | 0.00 | 60 | 1018.5 |
| 20260510093034 | 51 | 225 | 3.0 | 5.0 | 0.00 | 0.00 | 0.00 | 59 | 1018.6 |
| 20260510091529 | 51 | 230 | 3.0 | 6.0 | 0.00 | 0.00 | 0.00 | 59 | 1018.9 |
| 20260510090033 | 51 | 238 | 3.0 | 5.0 | 0.00 | 0.00 | 0.00 | 58 | 1019.0 |
| 20260510084529 | 52 | 242 | 2.0 | 4.0 | 0.00 | 0.00 | 0.00 | 57 | 1019.1 |
| 20260510081529 | 53 | 239 | 2.0 | 4.0 | 0.00 | 0.00 | 0.00 | 56 | 1019.2 |
| 20260510080029 | 52 | 228 | 2.0 | 4.0 | 0.00 | 0.00 | 0.00 | 56 | 1019.2 |
| 20260510074534 | 52 | 230 | 2.0 | 3.0 | 0.00 | 0.00 | 0.00 | 55 | 1019.2 |
| 20260510073030 | 53 | 231 | 2.0 | 3.0 | 0.00 | 0.00 | 0.00 | 54 | 1019.2 |
| 20260510071532 | 54 | 234 | 2.0 | 4.0 | 0.00 | 0.00 | 0.00 | 54 | 1019.2 |
| 20260510070029 | 53 | 239 | 2.0 | 5.0 | 0.00 | 0.00 | 0.00 | 55 | 1019.1 |
| 20260510064603 | 53 | 236 | 2.0 | 5.0 | 0.00 | 0.00 | 0.00 | 56 | 1019.0 |
| 20260510063033 | 54 | 241 | 2.0 | 4.0 | 0.00 | 0.00 | 0.00 | 56 | 1019.0 |
| 20260510061529 | 54 | 243 | 2.0 | 4.0 | 0.00 | 0.00 | 0.00 | 55 | 1019.1 |
| 20260510060031 | 55 | 234 | 2.0 | 3.0 | 0.00 | 0.00 | 0.00 | 55 | 1019.0 |
| 20260510054605 | 55 | 247 | 1.0 | 3.0 | 0.00 | 0.00 | 0.00 | 55 | 1019.0 |
| 20260510053033 | 56 | 247 | 0.0 | 2.0 | 0.00 | 0.00 | 0.00 | 53 | 1018.9 |
| 20260510051529 | 57 | 242 | 1.0 | 3.0 | 0.00 | 0.00 | 0.00 | 49 | 1018.8 |
| 20260510050026 | 58 | 243 | 2.0 | 3.0 | 0.00 | 0.00 | 0.00 | 48 | 1018.8 |
| 20260510043029 | 60 | 216 | 1.0 | 4.0 | 0.00 | 0.00 | 0.00 | 44 | 1018.8 |
| 20260510041531 | 61 | 202 | 0.0 | 2.0 | 0.00 | 0.00 | 0.00 | 44 | 1018.6 |
| 20260510040030 | 61 | 190 | 0.0 | 4.0 | 0.00 | 0.00 | 0.00 | 45 | 1018.5 |
| 20260510033030 | 62 | 135 | 0.0 | 0.0 | 0.00 | 0.00 | 0.00 | 43 | 1018.4 |
| 20260510031603 | 64 | 135 | 0.0 | 0.0 | 0.00 | 0.00 | 0.00 | 40 | 1018.3 |
| 20260510030107 | 66 | 135 | 0.0 | 0.0 | 0.00 | 0.00 | 0.00 | 39 | 1018.2 |
| 20260510024533 | 68 | 135 | 0.0 | 0.0 | 0.00 | 0.00 | 0.00 | 36 | 1018.1 |
| 20260510023028 | 73 | 122 | 0.0 | 0.0 | 0.00 | 0.00 | 0.00 | 27 | 1018.0 |
| 20260510021529 | 79 | 112 | 0.0 | 2.0 | 0.00 | 0.00 | 0.00 | 25 | 1018.1 |
| 20260510020028 | 80 | 112 | 0.0 | 1.0 | 0.00 | 0.00 | 0.00 | 24 | 1018.1 |
| 20260510014532 | 82 | 112 | 0.0 | 2.0 | 0.00 | 0.00 | 0.00 | 22 | 1018.3 |
| 20260510013029 | 82 | 112 | 0.0 | 2.0 | 0.00 | 0.00 | 0.00 | 25 | 1018.4 |
| 20260510011532 | 82 | 112 | 0.0 | 2.0 | 0.00 | 0.00 | 0.00 | 25 | 1018.5 |
| 20260510010030 | 82 | 126 | 0.0 | 2.0 | 0.00 | 0.00 | 0.00 | 23 | 1018.5 |
| 20260510004530 | 83 | 153 | 0.0 | 2.0 | 0.00 | 0.00 | 0.00 | 23 | 1018.5 |
| 20260510003106 | 83 | 127 | 0.0 | 3.0 | 0.00 | 0.00 | 0.00 | 24 | 1018.6 |
| 20260510000106 | 86 | 136 | 0.0 | 3.0 | 0.00 | 0.00 | 0.00 | 23 | 1018.8 |
| 20260509234530 | 85 | 99 | 1.0 | 4.0 | 0.00 | 0.00 | 0.00 | 23 | 1019.0 |
| 20260509231531 | 84 | 105 | 0.0 | 3.0 | 0.00 | 0.00 | 0.00 | 24 | 1019.5 |
| 20260509230030 | 84 | 116 | 0.0 | 4.0 | 0.00 | 0.00 | 0.00 | 24 | 1019.7 |
| 20260509224531 | 83 | 96 | 0.0 | 4.0 | 0.00 | 0.00 | 0.00 | 25 | 1020.0 |
| 20260509220032 | 80 | 124 | 1.0 | 5.0 | 0.00 | 0.00 | 0.00 | 27 | 1020.6 |
| 20260509214532 | 81 | 128 | 1.0 | 4.0 | 0.00 | 0.00 | 0.00 | 27 | 1020.8 |
| 20260509211531 | 80 | 125 | 0.0 | 4.0 | 0.00 | 0.00 | 0.00 | 29 | 1021.3 |
| 20260509204528 | 79 | 87 | 0.0 | 3.0 | 0.00 | 0.00 | 0.00 | 33 | 1021.5 |
| 20260509203031 | 78 | 134 | 1.0 | 4.0 | 0.00 | 0.00 | 0.00 | 33 | 1021.7 |
| 20260509201530 | 78 | 95 | 1.0 | 6.0 | 0.00 | 0.00 | 0.00 | 34 | 1022.0 |
| 20260509200103 | 77 | 91 | 0.0 | 3.0 | 0.00 | 0.00 | 0.00 | 34 | 1022.2 |
| 20260509193031 | 76 | 153 | 0.0 | 5.0 | 0.00 | 0.00 | 0.00 | 36 | 1022.5 |
| 20260509191530 | 74 | 148 | 0.0 | 4.0 | 0.00 | 0.00 | 0.00 | 37 | 1022.9 |
| 20260509190107 | 74 | 129 | 0.0 | 3.0 | 0.00 | 0.00 | 0.00 | 38 | 1023.0 |
| 20260509184531 | 74 | 72 | 1.0 | 5.0 | 0.00 | 0.00 | 0.00 | 39 | 1023.1 |
| 20260509183031 | 73 | 79 | 0.0 | 3.0 | 0.00 | 0.00 | 0.00 | 41 | 1023.3 |
| 20260509181606 | 72 | 86 | 0.0 | 4.0 | 0.00 | 0.00 | 0.00 | 41 | 1023.3 |
| 20260509174616 | 70 | 97 | 0.0 | 3.0 | 0.00 | 0.00 | 0.00 | 43 | 1023.5 |
| 20260509173031 | 71 | 64 | 0.0 | 2.0 | 0.00 | 0.00 | 0.00 | 43 | 1023.6 |
| 20260509170029 | 69 | 90 | 0.0 | 3.0 | 0.00 | 0.00 | 0.00 | 46 | 1023.9 |
| 20260509164533 | 67 | 111 | 0.0 | 2.0 | 0.00 | 0.00 | 0.00 | 47 | 1024.0 |
| 20260509161530 | 65 | 112 | 0.0 | 2.0 | 0.00 | 0.00 | 0.00 | 51 | 1024.4 |
| 20260509160036 | 63 | 141 | 0.0 | 0.0 | 0.00 | 0.00 | 0.00 | 54 | 1024.3 |
| 20260509154607 | 60 | 173 | 0.0 | 1.0 | 0.00 | 0.00 | 0.00 | 60 | 1024.3 |
| 20260509151530 | 54 | 225 | 0.0 | 1.0 | 0.00 | 0.00 | 0.00 | 69 | 1024.4 |
| 20260509150152 | 51 | 225 | 0.0 | 2.0 | 0.00 | 0.00 | 0.00 | 73 | 1024.5 |
| 20260509144531 | 49 | 238 | 2.0 | 4.0 | 0.00 | 0.00 | 0.00 | 76 | 1024.4 |
| 20260509141532 | 45 | 240 | 2.0 | 5.0 | 0.00 | 0.00 | 0.00 | 81 | 1024.4 |
| 20260509140030 | 44 | 232 | 3.0 | 6.0 | 0.00 | 0.00 | 0.00 | 83 | 1024.3 |
| 20260509134531 | 43 | 236 | 2.0 | 4.0 | 0.00 | 0.00 | 0.00 | 85 | 1024.3 |
| 20260509133145 | 42 | 234 | 3.0 | 5.0 | 0.00 | 0.00 | 0.00 | 86 | 1024.1 |
| 20260509131603 | 42 | 232 | 2.0 | 5.0 | 0.00 | 0.00 | 0.00 | 86 | 1023.8 |
| 20260509130033 | 41 | 249 | 1.0 | 4.0 | 0.00 | 0.00 | 0.00 | 86 | 1023.6 |
| 20260509124603 | 42 | 225 | 0.0 | 1.0 | 0.00 | 0.00 | 0.00 | 85 | 1023.6 |
| 20260509123031 | 42 | 230 | 1.0 | 4.0 | 0.00 | 0.00 | 0.00 | 84 | 1023.7 |
| 20260509121531 | 42 | 240 | 2.0 | 4.0 | 0.00 | 0.00 | 0.00 | 83 | 1023.7 |
| 20260509120030 | 44 | 238 | 2.0 | 4.0 | 0.00 | 0.00 | 0.00 | 82 | 1023.7 |
| 20260509114646 | 43 | 250 | 1.0 | 3.0 | 0.00 | 0.00 | 0.00 | 82 | 1023.7 |
| 20260509113108 | 44 | 247 | 1.0 | 4.0 | 0.00 | 0.00 | 0.00 | 81 | 1023.7 |
| 20260509111532 | 44 | 236 | 2.0 | 6.0 | 0.00 | 0.00 | 0.00 | 80 | 1023.8 |
| 20260509104607 | 46 | 253 | 1.0 | 4.0 | 0.00 | 0.00 | 0.00 | 78 | 1023.6 |
| 20260509103030 | 46 | 258 | 1.0 | 4.0 | 0.00 | 0.00 | 0.00 | 77 | 1023.6 |
| 20260509101645 | 47 | 256 | 1.0 | 3.0 | 0.00 | 0.00 | 0.00 | 75 | 1023.8 |
| 20260509100029 | 48 | 239 | 1.0 | 3.0 | 0.00 | 0.00 | 0.00 | 73 | 1023.8 |